Погода в Вербе

Украина / Ровненская область     50°16′48″N   25°36′02″E
темп.,
°C
ветер,
м/с
пор.,
м/с
влажн.,
%
обл.,
%
осадки,
мм/ч
давл.,
гПа
погр.,
м
8 декабря, ср
ср823:00−5ссв4993100 0.0 1015365
02:00−5ссв4995100 0.5 1015346
05:00−5ссв499597 0.9 1015363
08:00−6ссв499696 1.3 1015348
11:00−4св4893100 0.5 1015343
14:00−4ссв3796100 1.0 1014309
17:00−4св4895100 0.4 1014353
20:00−4св3695100 0.4 1014292
9 декабря, чт
чт923:00−3св2396100 0.1 1015162
02:00−3всв2495100 0.1 1014196
05:00−2в3696100 0.0 1014248
08:00−2в2596100 0.0 1015256
11:00−1вюв4794100 0.0 1015283
14:000в4897100 0.0 1014339
17:000вюв51096100 0.0 1014320
20:00+1вюв51297100 0.0 1013345
10 декабря, пт
пт1023:00+1вюв6149899 0.0 1012394
02:00+2юв71596100 0.0 1011644
05:00+2юв61495100 0.0 1010765
08:00+2юв61396100 0.0 1009489
11:00+2юв39100100 0.0 1009321
14:00+2в38100100 0.1 1007220
17:00+3в411100100 1.2 1005280
20:00+4юв49100100 2.0 1004200
11 декабря, сб
сб1123:00+2ю25100100 0.8 1005115
02:00+1зюз3699100 0.8 1007202
05:00+1зюз2699100 0.0 1009247
08:00+1зюз2599100 0.1 1011271
11:00+2ююз2498100 0.1 1014369
14:00+2юз3692100 0.1 1016424
17:00+2вюв2290100 0.0 101834
20:00+2в3591100 0.0 1020184
12 декабря, вс
вс1223:00+1всв4994100 0.0 1019217
02:00+2всв4997100 1.4 1019269
05:00+3ссв51298100 6.8 1017360
08:00+3св5899100 10.1 1016214
11:00+7юв51295100 3.6 1015419
14:00+7вюв41094100 6.3 1014339
17:00+6вюв2396100 2.0 101465
20:00+5св2498100 6.3 1014135